User: anonymous
Location: Fort Wayne
(41.1310°N, 85.1290°W)
Time: 00:31:06
(UTC-04:00)
Language:

Cosmos 1980 - Orbit

View from above orbital plane
View from above orbital plane
View from above satellite
View from above satellite

Ground track
Ground track

The orbit data is extracted from the following two-line orbital elements,

1 19649U 88102A   14212.79127566 -.00000266  00000-0 -11353-3 0  8172
2 19649 071.0008 112.3815 0003312 119.7249 240.4203 14.14543517325886
Epoch (UTC): 31 July 2014 18:59:26
Eccentricity: 0.0003312
inclination: 71.0008°
perigee height: 841 km
apogee height: 846 km
right ascension of ascending node: 112.3815°
argument of perigee: 119.7249°
revolutions per day: 14.14543517
mean anomaly at epoch: 240.4203°
orbit number at epoch: 32588

The dashed part of the orbit path shows where the satellite is in the earth's shadow,  

DLR